Погода в Вязьме

Погода в Вязьме : погода сейчас, прогноз погоды и архив. Всё, что Вы хотите узнать о погоде в Вязьме!

Поиск расширенной информации на нашем сайте:

Другие новости

Новости СМИ2

Главная страница сайта

Новости сайта

03.07.2017

Напоминаем, что на нашем специализированном сайте Метеоцентр.Азия вы можете получить высокодетализированные автоматические прогнозы погоды по пунктам России, СНГ и мира в авиационном формате (включающие направление и скорость ветра, видимость, явления погоды, количество и форму облачности, нижнюю и верхнюю границу облачности).


Погода в Вязьме - сегодня

Время (UTC), дата Ветер
(°,м/с) 
Видим.   Явления Облачность Т
(°С)
Тd
(°С)
f(%) Тe
(°С)
Pmin
(гПа)
dP
(гПа)
Po
(мм)
O2
(г/м3)
Тmin Tmax R s Состояние
почвы
03 18.07.17 220 (ЮЗ) 10 км    8/4 300 м средняя, верхняя 
[Sc|Ac trans|Ci fib]
+14.3 +11.7 84 +20  1016.2  740  281  +12.5         
06 18.07.17 220 (ЮЗ) 10 км    6/3 600 м средняя 
[Sc|Ac trans]
+17.9 +12.9 73 +25  1016  0.1  740  277  +12.5        мокрая 
09 18.07.17 260 (З) 10 км    9/9 540 м 
[Cu Sc]
+17.7 +13.1 74 +24  1016.4  0.4  741  278           
12 18.07.17 260 (З) 10 км    4/3 1000 м верхняя 
[Cu hum|Ci fib]
+20.1 +8.4 47 +20  1015.9  -0.3  740  276           
15 18.07.17 260 (З) 10 км    4/4 1000 м 
[Cu hum]
+19.7 +7.8 46 +20  1016  0.1  740  277           
18 18.07.17 240 (ЮЗ) 10 км    ясно 
+14.3 +8.9 70 +15  1016.9  0.3  741  282    +20.4       
21 18.07.17 200 (Ю) 10 км    ясно 
+10.7 +8.9 89 +11  1017.9  0.6  741  286           
00 19.07.17 250 (З) 10 км    3/0 средняя 
[Ac trans]
+9.6 +8.2 91 +10  1018.1  0.1  741  287           
03 19.07.17 230 (ЮЗ) 10 км    4/0 средняя 
[Ac trans]
+11.5 +9.5 88 +14  1018  0.1  741  285  +9.2         
06 19.07.17 260 (З) 10 км    3/0 средняя 
[Ac trans]
+17 +10.9 67 +20  1017.8  0.4  742  279  +9.2        мокрая 
09 19.07.17 270 (З) 10 км    6/4 600 м средняя, верхняя 
[Sc|Ac trans|Ci fib]
+17.6 +10.2 62 +20  1017.8  742  279           
12 19.07.17 250 (З) 10 км    9/4 600 м средняя 
[Sc|Ac trans]
+18.4 +9.7 57 +20  1017.5  -0.3  741  278           
15 19.07.17 290 (З) 10 км    4/1 600 м средняя 
[Sc|Ac trans]
+19.5 +8.8 50 +20  1016.6  -0.7  741  277           
18 19.07.17 270 (З) 10 км    4/0 средняя, верхняя 
[Ac trans|Cc]
+14.7 +10.4 75 +18  1017.5  0.4  741  281    +19.8       
21 19.07.17 220 (ЮЗ) 4000 м  дымка  ясно 
+9.6 +8.9 95 +11  1017.8  -0.3  741  287           
00 20.07.17 210 (ЮЗ) 4000 м  дымка  ясно 
+7.4 +7 97 +8  1017.9  0.1  741  289           
03 20.07.17 тихо ()   4000 м  дымка  ясно 
+9.6 +9.2 97 +10  1017.2  -0.4  741  287  +6.8         
06 20.07.17 200 (Ю) 10 км    3/0 верхняя 
[Ci fib]
+18.6 +11.3 62 +23  1016.2  -0.1  741  277  +6.8        влажная 
09 20.07.17 220 (ЮЗ) 10 км    4/1 1000 м средняя, верхняя 
[Cu hum|Ac trans|Cc]
+20.7 +10.1 51 +22  1015.2  -0.8  740  275           
12 20.07.17 180 (Ю) 10 км    4/3 1000 м верхняя 
[Cu hum|Cc]
+20.3 +10.6 54 +23  1013.8  -1.4  739  275           
15 20.07.17 280 (З) 10 км    6/3 1000 м верхняя 
[Cu hum|Cc]
+21.1 +9.7 48 +22  1012.8  -0.9  738  274           
18 20.07.17 180 (Ю) 10 км    8/3 1000 м средняя, верхняя 
[Sc|Ac trans|Ci fib]
+16.1 +12.3 78 +22  1013  -0.2  738  278    +21.5       
21 20.07.17 090 (В) 10 км    4/0 средняя 
[Ac trans]
+15.3 +13 86 +23  1013.3  0.2  738  279           
00 21.07.17 150 (ЮВ) 4000 м  дымка  8/0 средняя 
[Ac trans]
+13.2 +11.9 92 +18  1013  -0.5  738  281           
03 21.07.17 240 (ЮЗ) 10 км    8/3 300 м средняя 
[Sc|Ac trans]
+14.2 +12.5 90 +19  1013.2  0.2  738  280  +12.1         
Время (UTC), дата Ветер
(°,м/с) 
Видим.   Явления Облачность Т
(°С)
Тd
(°С)
f(%) Тe
(°С)
Pmin
(гПа)
dP
(гПа)
Po
(мм)
O2
(г/м3)
Тmin Tmax R s Состояние
почвы

Для получения пояснительной информации подведите курсор к названию столбца.

ПОГОДА в Вязьме - архив

Всё, что Вы хотите узнать о погоде в Вязьме - удобно и подробно!

Выберите нужную дату (начиная с 1 января 2015* года) и нажмите кнопку "Найти".
Будут отображены архивные сводки погоды по пункту Вязьма, начиная с указанной даты.


Отображать данные в формате CSV (для использования в таблицах Excel)


Внимание! Наш архив погоды предназначен исключительно для личного некоммерческого использования в познавательных целях. Если Вам необходимы официальные справки о состоянии погоды (для производственных, юридических, коммерческих и т.п. целей), обращайтесь в органы Росгидромета.

*Примечание: данная дата относится к архиву по метеостанциям СССР (Россия, СНГ, Балтия).
Архив по метеостанциям Зарубежной Европы и Азии (кроме Китая) хранится 10 дней, по другим регионам земного шара (Китай, Африка, Америка, Австралия, Океания) - 1 день.

Вязьма - район местоположения метеостанции


Название, широта, долгота, высота метеостанции:
Вязьма 55.2°ш. 34.4°д. 251 м над ур. моря [Российская Федерация]

Дополнительная информация

В oтличие oт бoльшинства пoгoдных сайтoв мы публикуем пoдрoбную метеoинфoрмацию в детальнoм прoфессиoнальнoм фoрмате.

Характеристики температуры и влажнoсти вoздуха измеряются на высoте 2 м в тени вдали oт зданий и деревьев.
Скoрoсть ветра измеряется на высoте 10 м (на урoвне рoста челoвека скoрoсть ветра ниже в 1.5-2 раза). Если метеoстанция нахoдится в гoрoде или в лесу, тo скoрoсть ветра занижена на 2-4 м/с пo сравнению с oткрытым местoм. Скoрoсть ветра над акватoриями крупных рек и oзёр, а также на вершинах хoлмoв на 2-5 м/с выше, чем в oбычных услoвиях.
Атмoсфернoе давление в разных тoчках местнoсти мoжет значительнo oтличаться oт давления на метеoстанции, в зависимoсти oт услoвий рельефа (при пoдъёме на 10 м давление пoнижается примернo на 1 мм рт.ст.).